Flag for Netherlands Weather past 2 weeks in Willemstad, Netherlands

Now
82 °F

Passing clouds.


Feels Like: 89 °F
Forecast: 82 / 89 °F
Wind: 8 mph from Southeast

Location: Hato Airport - Curacao

Current Time: Oct 25, 2014 at 4:06:51 AM

Latest Report: Oct 25, 2014 at 3:00 AM


Visibility: N/A

Pressure: 29.80 "Hg

Humidity: 79%

Dew point: 75 °F

Location of WillemstadLocation

Historic Weather in Willemstad — Graph

°F

Willemstad temperature yesterday

Maximum temperature yesterday: 90 °F (at 11:00 AM)
Minimum temperature yesterday: 82 °F (at 12:00 AM)
Average temperature yesterday: 85 °F

Past Weeks' High & Low Weather Summary

 TemperatureHumidityPressure
High91 °F (Oct 12, 11:00 AM)94% (Oct 10, 2:00 AM)29.95 "Hg (Oct 10, 2:00 AM)
Low75 °F (Oct 10, 10:00 AM)55% (Oct 17, 2:00 PM)29.56 "Hg (Oct 17, 6:00 AM)
Average84 °F79%29.87 "Hg
* Reported Oct 10 2:00 AM — Oct 25 2:00 AM, Willemstad, Weather by CustomWeather, © 2014

Note: Actual official high and low records may vary slightly from our data, if they occured in-between our weather recording intervals... More about our weather records

Advertising

Willemstad weather history for previous 24 hours

 ConditionsComfort  
Time TempWeatherWind HumidityBarometerVisibility
2:00 AM
Oct 25
82 °FPassing clouds.10 mph79%29.80 "HgN/A
1:00 AM82 °FPassing clouds.12 mph84%29.83 "HgN/A
12:00 AM84 °FPassing clouds.15 mph79%29.83 "HgN/A
11:00 PM
Oct 24
82 °FPassing clouds.13 mph84%29.83 "HgN/A
10:00 PM82 °FPassing clouds.10 mph84%29.83 "HgN/A
9:00 PM82 °FClear.12 mph84%29.83 "Hg10 mi
8:00 PM82 °FClear.9 mph79%29.80 "Hg10 mi
7:00 PM84 °FPassing clouds.12 mph74%29.77 "HgN/A
6:00 PM84 °FPassing clouds.13 mph70%29.77 "HgN/A
5:00 PM86 °FPassing clouds.15 mph70%29.77 "HgN/A
4:00 PM86 °FScattered clouds.13 mph75%29.77 "HgN/A
3:00 PM88 °FScattered clouds.12 mph70%29.77 "HgN/A
2:00 PM88 °FScattered clouds.10 mph70%29.80 "HgN/A
1:00 PM90 °FScattered clouds.9 mph67%29.83 "HgN/A
12:00 PM90 °FScattered clouds.8 mph71%29.86 "HgN/A
11:00 AM90 °FScattered clouds.9 mph67%29.92 "HgN/A
10:00 AM88 °FScattered clouds.8 mph70%29.92 "HgN/A
9:00 AM88 °FScattered clouds.12 mph70%29.92 "HgN/A
8:00 AM86 °FScattered clouds.12 mph75%29.89 "HgN/A
7:00 AM82 °FScattered clouds.9 mph84%29.86 "HgN/A
6:00 AM82 °FPassing clouds.9 mph84%29.83 "HgN/A
Weather by CustomWeather, © 2014

See weather overviewHow to use our weather pages